Regional Weather Roundup
Issued by NWS Albany, NY

Home | Current Version | Previous Version | Text Only | Print | Product List | Glossary On
Versions: 1 2 3 4 5 6 7 8 9 10 11 12 13 14 15 16 17 18 19 20 21 22 23 24 25 26 27
000
ASUS41 KALY 232210
RWRALY

NEW YORK STATE HOURLY WEATHER ROUNDUP
NATIONAL WEATHER SERVICE ALBANY NY
600 PM EDT WED APR 23 2014

NOTE: "FAIR" INDICATES FEW OR NO CLOUDS BELOW 12,000 FEET WITH NO
SIGNIFICANT WEATHER AND/OR NO OBSTRUCTIONS TO VISIBILITY.

NYZ032-033-038>043-046>054-057>066-NYZ062>081-232300-
EAST


CITY           SKY/WX    TMP DP  RH WIND       PRES   REMARKS
ALBANY         CLOUDY    47  33  58 NW21      29.71R
GLENS FALLS    CLOUDY    51  31  46 NW13      29.69R
POUGHKEEPSIE   PTSUNNY   52  33  48 NW16G29   29.68R
MONTGOMERY     CLOUDY    47  33  58 NW14G33   29.72R
WHITE PLAINS   MOSUNNY   53  34  48 NW28G36   29.64R
ISLIP          MOSUNNY   59  33  37 NW28G36   29.58R
NEW YORK CITY  MOSUNNY   54  32  43 NW33G39   29.65R
CENTRAL PARK   MOSUNNY   55  32  41 NW15G30   29.69R
$$

NYZ005>009-017-018-044>046-055-056-232300-
CENTRAL


CITY           SKY/WX    TMP DP  RH WIND       PRES   REMARKS
FULTON         CLOUDY    41  31  67 W14G22    29.87R
SYRACUSE       CLOUDY    42  31  64 W15G23    29.86R
ROME           CLOUDY    41  30  65 W16       29.83R
ELMIRA         CLOUDY    42  28  57 N9G22     29.90R
BINGHAMTON     LGT SNOW  35  32  88 NW15G24   29.82R FOG     WCI  25
MONTICELLO     CLOUDY    37  34  87 NW17G36   29.75S WCI  28
$$

NYZ026>034-041>043-232300-
NORTH


CITY           SKY/WX    TMP DP  RH WIND       PRES   REMARKS
WATERTOWN      CLOUDY    48  27  44 NW10      29.84R
FORT DRUM      NOT AVBL
MASSENA        CLOUDY    47  28  47 NW16      29.79R
SARANAC LAKE   CLOUDY    38  29  70 NW8       29.70R WCI  32
PLATTSBURGH    CLOUDY    47  31  53 NW14G26   29.70R
$$

NYZ001>004-010>016-019>021-232300-
WEST


CITY           SKY/WX    TMP DP  RH WIND       PRES   REMARKS
NIAGARA FALLS  MOSUNNY   46  24  42 N16       29.96R
BUFFALO        MOSUNNY   47  26  44 NW15      29.96R
DUNKIRK        SUNNY     44  30  57 SW17G25   29.98R
JAMESTOWN      SUNNY     41  28  60 W15G25    29.97R
WELLSVILLE     MOSUNNY   42  25  50 NW21G31   29.89S
ROCHESTER      MOSUNNY   47  29  49 NW15G24   29.92R
PENN YAN       CLOUDY    42  31  64 W9G23     29.89S
$$

             KEY
       WCI = WIND CHILL INDEX
       VSB = VISIBILITY
       HX  = HEAT INDEX
$$



USA.gov is the U.S. government's official web portal to all federal, state and local government web resources and services.